Track STARLINK-4353 now! 10-day predictions STARLINK-4353 is classified as:
1 53214U 22084AB 22224.83335648 -.00047262 00000-0 -80992-3 0 9997 2 53214 97.6559 284.0996 0001501 106.9771 27.6522 15.51290569 3846